Location: West Cummington
(42.4920°N, 72.9680°W)
Time: 01:29:25
(UTC-04:00)

Daily predictions for brighter satellites

Satellite Brightness Start Highest point End
(mag) Time Altitude Azimuth Time Altitude Azimuth Time Altitude Azimuth
Cosmos 2237 Rocket 4.5 00:12:26 16° NE 00:12:26 16° NE 00:13:41 10° NE
Cosmos 2333 Rocket 4.3 00:15:40 20° NE 00:15:40 20° NE 00:17:22 10° NE
COSMOS 2428 4.4 00:30:56 30° N 00:30:56 30° N 00:33:57 10° NNE
ATLAS CENTAUR R/B 4.4 00:29:28 59° WSW 00:32:01 78° NW 00:59:36 10° NE
COSMOS 2455 4.5 00:43:38 28° NNE 00:43:38 28° NNE 00:46:20 10° NNE
Cosmos 2278 Rocket 4.0 00:37:47 10° NNW 00:40:20 28° NNW 00:40:20 28° NNW
CZ-3A R/B 4.2 00:31:45 10° SW 00:56:35 44° ENE 00:59:29 10° NE
CZ-2C R/B 4.4 00:57:57 10° NNE 01:00:36 30° NNE 01:00:36 30° NNE
CZ-4C R/B 4.4 01:08:30 18° ENE 01:08:30 18° ENE 01:10:07 10° NE
ATLAS 3B R/B 3.3 01:24:20 58° N 01:24:20 58° N 01:30:26 10° NNE
Cosmos 2219 Rocket 4.0 01:33:22 25° NNW 01:33:22 25° NNW 01:36:29 10° N
SL-16 R/B 3.6 01:51:42 35° NNE 01:51:42 35° NNE 01:54:56 10° NNE
Cosmos 2237 Rocket 3.9 01:54:15 27° NNW 01:54:15 27° NNW 01:57:39 10° N
Cosmos 2333 Rocket 4.0 01:57:40 25° NNW 01:57:40 25° NNW 02:01:13 10° N
ATLAS 5 CENTAUR R/B 4.4 02:15:35 13° E 02:15:35 13° E 02:16:43 10° ENE
ATLAS CENTAUR R/B 4.4 02:16:36 10° NNW 02:17:01 12° NNW 02:17:01 12° NNW
USA 238 DEB 4.1 02:22:18 56° NNW 02:22:18 56° NNW 02:28:43 10° NNE
USA 238 4.1 02:22:25 56° NNW 02:22:25 56° NNW 02:28:49 10° NNE
ARIANE 5 R/B 4.4 02:25:59 10° NE 02:29:50 22° E 02:29:50 22° E
Cosmos 1603 4.5 02:33:47 49° NNE 02:33:47 49° NNE 02:37:57 10° NNE
NOSS 3-2 (A) 3.7 02:36:49 65° NE 02:36:49 65° NE 02:42:27 10° NE
CZ-2D R/B 3.9 02:36:37 10° NE 02:40:36 21° E 02:41:02 21° E
CENTAUR R/B 4.1 02:46:30 23° ESE 02:47:08 23° ESE 02:52:08 10° ENE
NOSS 3-3 (A) 4.3 02:39:46 10° NW 02:47:09 84° WSW 02:47:09 84° WSW
NOSS 3-3 (C) 4.3 02:39:52 10° NW 02:47:20 85° WSW 02:47:20 85° WSW
CZ-4C R/B 3.2 02:53:41 38° NNW 02:53:41 38° NNW 02:58:57 10° NNE
NOSS 3-2 (C) 3.5 02:54:31 78° NNE 02:54:31 78° NNE 03:00:45 10° NE
S3M 4.1 02:56:18 66° NNW 02:56:18 66° NNW 03:01:53 10° N
Cosmos 1943 3.5 03:00:39 65° ENE 03:00:39 65° ENE 03:05:37 10° NNE
Meteor 2-3 Rocket 3.9 02:57:08 10° N 03:02:39 73° NE 03:02:39 73° NE
NPP 4.1 02:58:18 10° N 03:02:33 54° NNW 03:02:33 54° NNW
Resurs 1-4 Rocket 3.1 03:03:21 10° NNE 03:08:16 39° E 03:08:50 37° ESE
Cosmos 2251 Rocket 3.9 03:09:49 60° N 03:09:49 60° N 03:14:07 10° NNE
Cosmos 1386 Rocket 4.3 03:03:15 10° N 03:09:27 86° NW 03:09:27 86° NW
Cosmos 2369 Rocket 2.7 03:04:04 10° NNW 03:08:16 52° NNW 03:08:16 52° NNW
SL-16 R/B 2.9 03:09:51 38° SE 03:12:09 62° ENE 03:18:16 10° N
Cosmos 1553 Rocket 4.3 03:14:38 50° NW 03:14:38 50° NW 03:19:54 10° N
Cosmos 1745 Rocket 4.3 03:11:46 10° NNW 03:17:09 52° WNW 03:17:09 52° WNW
Cosmos 1709 Rocket 4.2 03:13:11 10° N 03:19:32 70° E 03:21:24 47° SSE
Cosmos 1455 3.7 03:22:45 35° ENE 03:22:45 35° ENE 03:25:35 10° NNE
Cosmos 839 Rocket 4.2 03:15:36 10° NW 03:23:37 63° WSW 03:23:41 63° WSW
Cosmos 1943 Rocket 2.8 03:19:30 10° NNW 03:25:06 55° ENE 03:30:36 10° SE
Cosmos 1733 Rocket 4.0 03:21:32 10° N 03:25:45 44° ENE 03:26:06 43° E
Cosmos 494 Rocket 4.1 03:31:55 66° NW 03:31:55 66° NW 03:36:49 10° NNE
Cosmos 724 4.1 03:31:12 75° WSW 03:31:35 80° WNW 03:37:40 10° NNE
SL-16 R/B 4.3 03:33:34 13° NW 03:34:24 14° NW 03:37:11 10° NNW
ERS-2 3.4 03:40:31 10° N 03:42:51 35° N 03:42:51 35° N
Cosmos 2263 4.2 03:42:37 10° NNW 03:48:15 60° WSW 03:48:15 60° WSW
Cosmos 1302 Rocket 4.2 03:46:15 10° NNW 03:50:44 54° WNW 03:50:44 54° WNW
Cosmos 1825 3.9 03:51:30 10° NNE 03:54:57 32° ENE 03:57:55 13° SE
Meteor 2-10 4.1 03:55:14 58° WSW 03:55:49 61° WNW 04:01:10 10° N
ATLAS 5 CENTAUR R/B 1.8 03:57:08 62° W 03:57:42 68° NW 04:02:57 10° NNE
UNK 4.0 04:00:48 51° WNW 04:00:48 51° WNW 04:04:43 10° NNW
SeaSat 1 3.2 03:58:12 10° SE 04:02:59 53° ENE 04:07:48 10° NNW
USA 234 3.2 03:56:50 10° NE 04:03:26 90° S 04:06:05 40° SW
IRS-1D 3.7 03:58:41 10° N 04:03:48 57° WNW 04:04:39 50° WSW
Cosmos 1184 Rocket 4.2 04:00:36 10° NNW 04:02:37 32° NNW 04:02:37 32° NNW
BREEZE-M DEB (TANK) 4.0 04:04:03 26° W 04:07:02 39° NNW 04:10:18 10° NE
Okean O Rocket 2.6 04:03:33 10° NNE 04:07:51 45° E 04:10:30 21° SSE
ARIANE 5 R/B 2.9 04:04:20 10° N 04:09:22 47° WNW 04:10:10 44° W
MOZ.5/SAFIR/RUBIN 5/SL-8 4.3 04:06:08 10° SSE 04:10:40 59° ENE 04:15:16 10° N
Cosmos 1703 Rocket 4.5 04:11:59 18° SSE 04:15:06 48° E 04:19:26 10° NNE
Cosmos 389 Rocket 2.5 04:20:49 61° WNW 04:20:49 61° WNW 04:24:10 10° N
CZ-2D R/B 2.4 04:15:53 10° N 04:20:56 48° WNW 04:22:22 38° WSW
Cosmos 2285 Rocket 4.0 04:14:46 10° NNW 04:21:15 86° ENE 04:27:38 10° SSE
Cosmos 2315 Rocket 4.4 04:19:28 35° WSW 04:21:20 45° WNW 04:27:21 10° N
Sich 1 Rocket 3.4 04:18:55 10° N 04:23:18 78° W 04:25:52 25° S
EO 1 Del DPAF 3.9 04:27:29 38° WNW 04:27:29 38° WNW 04:30:37 10° NNW
UNKNOWN OBJECT B 3.1 04:25:41 10° N 04:29:13 43° WNW 04:29:24 42° W
Cosmos 1862 3.1 04:28:46 10° N 04:32:45 77° W 04:35:29 19° S
Cosmos 1174 4.2 04:31:04 32° SW 04:33:33 83° WNW 04:37:55 10° NNE
Abrixas rocket 3.1 04:32:17 23° NW 04:34:04 48° NNE 04:37:20 10° E
CENTAUR R/B 2.6 04:33:41 29° SW 04:37:02 67° NW 04:43:59 10° NNE
Cosmos 1190 Rocket 4.3 04:35:17 15° S 04:39:35 67° ESE 04:44:45 10° NNE
Cosmos 1869 4.2 04:39:22 30° W 04:39:36 30° WNW 04:43:08 10° NNW
Cosmos 1862 Rocket 4.3 04:39:23 31° W 04:40:12 34° WNW 04:44:15 10° N
COSMOS 2487 3.6 04:38:36 14° S 04:41:24 43° ESE 04:44:50 10° NNE
ARGOS Delta rocket 3.7 04:37:21 10° N 04:41:40 56° WNW 04:43:50 27° SW
Cosmos 1992 Rocket 3.9 04:39:08 10° NNW 04:44:19 64° WSW 04:49:28 10° S
PSLV R/B 3.6 04:44:01 41° SW 04:44:38 47° SSW 04:47:57 10° ESE
Okean 1-7 3.4 04:41:08 10° S 04:45:23 65° E 04:49:43 10° NNE
Resurs 1-4 Rocket 3.1 04:43:31 10° N 04:47:56 28° WNW 04:49:54 22° W
Thor Agena Rocket 3.6 04:45:51 10° SSE 04:50:59 85° ENE 04:56:15 10° NNW
COSMOS 2406 3.3 04:48:11 22° SW 04:51:54 61° WNW 04:57:37 10° NNE
SL-27 R/B 3.6 04:53:36 26° W 04:54:28 29° WNW 04:57:39 10° N
Cosmos 1933 3.7 04:53:01 25° SW 04:55:00 44° WNW 04:58:57 10° N
SL-16 R/B 3.6 04:54:57 20° WSW 04:56:13 21° W 05:00:49 10° NW
Okean 2 Rocket 3.1 04:53:06 10° N 04:57:38 86° W 05:02:09 10° S
Cosmos 1455 4.2 04:57:48 14° WNW 04:57:50 14° WNW 05:00:01 10° NW
ADEOS II 2.9 04:53:50 10° NNE 04:58:58 51° E 05:04:04 10° S
USA 32 4.0 04:54:13 10° SSW 04:59:25 65° W 05:04:38 10° N
CZ-4B R/B 3.1 04:55:16 10° N 05:00:33 72° WNW 05:05:49 10° SSW
CZ-4B R/B 2.7 04:58:27 10° N 05:02:07 63° WNW 05:05:20 14° SSW
Nadezhda 1 Rocket 4.1 04:56:12 10° SSW 05:02:23 62° W 05:08:42 10° N
CZ-4B DEB 4.2 04:57:25 10° N 05:02:54 75° WNW 05:08:20 10° SSW
Atlas Centaur 2 3.6 05:02:13 11° SSW 05:04:34 16° SSE 05:07:31 10° SE
BREEZE-M DEB (TANK) 4.4 05:01:15 12° WNW 05:05:06 46° SSW 05:15:37 10° SE
Cosmos 1943 Rocket 3.3 05:04:10 10° NW 05:08:23 22° W 05:12:34 10° SSW
Cosmos 1408 3.6 05:06:49 10° NNW 05:10:03 27° W 05:12:29 14° SW
CZ-2C R/B 4.3 05:09:52 10° SSW 05:13:50 32° W 05:17:51 10° NNW
Cosmos 1782 Rocket 3.8 05:09:50 10° NNW 05:13:58 44° W 05:18:05 10° SSW
Cosmos 676 Rocket 4.0 05:12:31 10° SSW 05:17:41 87° ESE 05:22:55 10° NNE
Cosmos 2082 Rocket 4.2 05:14:00 10° SSE 05:18:52 30° ESE 05:23:45 10° NE
Cosmos 2181 Rocket 4.2 05:13:32 10° S 05:19:59 83° E 05:26:23 10° N
AVUM R/B 3.4 05:20:29 13° SW 05:23:13 55° WNW 05:26:31 10° NNE
USA 129 1.4 05:25:43 28° WSW 05:25:56 30° W 05:27:18 10° NNW
Cosmos 1825 3.8 05:27:55 10° NW 05:30:17 16° W 05:32:39 10° SW
Cosmos 2154 Rocket 4.2 05:27:10 10° NNW 05:33:14 50° W 05:39:19 10° SSW
Cosmos 407 Rocket 3.8 05:28:47 10° SW 05:33:51 50° WNW 05:39:01 10° N
Cosmos 1656 Rocket 4.5 05:31:12 10° NW 05:35:39 26° WSW 05:40:05 10° SSW
COSMO-SKYMED 1 4.1 05:35:01 10° SE 05:39:06 42° ENE 05:43:12 10° N
SeaSat 1 3.6 05:37:04 10° SSW 05:40:46 21° WSW 05:44:28 10° WNW
ATLAS 5 CENTAUR R/B 4.0 05:40:23 10° WNW 05:43:29 16° NNW 05:46:46 10° N
Okean O Rocket 3.2 05:40:48 10° NNW 05:43:53 19° WNW 05:46:58 10° WSW
Meteor 1-31 Rocket 2.8 05:41:12 10° NNE 05:45:03 85° ESE 05:48:51 10° SSW
Timation 2 Rocket 4.4 05:39:06 10° SSW 05:45:14 65° ESE 05:51:13 10° NNE
USA 234 4.2 05:40:07 10° NE 05:45:59 36° NNW 05:51:51 10° W
Cosmos 1140 Rocket 3.5 05:45:28 10° SSW 05:50:35 90° W 05:55:47 10° NNE
MOS 1 Rocket 3.2 05:46:38 10° NNE 05:50:57 79° ESE 05:55:14 10° S
